Flag for U.S.A. Weather past 2 weeks in Louisville, Kentucky, U.S.A.

Now
27 °F

Clear.


Feels Like: 22 °F
Forecast: 28 / 57 °F
Wind: 5 mph from Southeast

Location: Standiford Field

Current Time: Mar 29, 2015 at 7:03:37 AM

Latest Report: Mar 29, 2015 at 5:56 AM


Visibility: 10 mi

Pressure: 30.35 "Hg

Humidity: 63%

Dew point: 16 °F

Location of LouisvilleLocation

Historic Weather in Louisville — Graph

°F

Louisville temperature yesterday

Maximum temperature yesterday: 43 °F (at 5:56 PM)
Minimum temperature yesterday: 23 °F (at 7:56 AM)
Average temperature yesterday: 33 °F

Past Weeks' High & Low Weather Summary

 TemperatureHumidityPressure
High77 °F (Mar 16, 3:56 PM)96% (Mar 14, 6:56 AM)30.37 "Hg (Mar 14, 6:56 AM)
Low23 °F (Mar 28, 7:56 AM)20% (Mar 18, 4:56 PM)29.83 "Hg (Mar 26, 5:56 AM)
Average50 °F57%30.12 "Hg
* Reported Mar 14 5:56 AM — Mar 29 5:56 AM, Louisville, Weather by CustomWeather, © 2015

Note: Actual official high and low records may vary slightly from our data, if they occured in-between our weather recording intervals... More about our weather records

Advertising

Louisville weather history for previous 24 hours

 ConditionsComfort  
Time TempWeatherWind HumidityBarometerVisibility
5:56 AM
Sun, Mar 29
27 °FClear.5 mph63%30.35 "Hg10 mi
4:56 AM28 °FClear.5 mph61%30.36 "Hg10 mi
3:56 AM30 °FClear.5 mph54%30.36 "Hg10 mi
2:56 AM32 °FClear.No wind47%30.37 "Hg10 mi
1:56 AM32 °FClear.3 mph50%30.37 "Hg10 mi
12:56 AM32 °FClear.3 mph52%30.37 "Hg10 mi
11:56 PM
Sat, Mar 28
34 °FClear.3 mph46%30.37 "Hg10 mi
10:56 PM36 °FClear.5 mph38%30.36 "Hg10 mi
9:56 PM36 °FClear.6 mph37%30.34 "Hg10 mi
8:56 PM37 °FSunny.6 mph37%30.33 "Hg10 mi
7:56 PM39 °FSunny.7 mph33%30.31 "Hg10 mi
6:56 PM41 °FSunny.6 mph30%30.30 "Hg10 mi
5:56 PM43 °FPassing clouds.6 mph29%30.29 "Hg10 mi
4:56 PM42 °FSunny.7 mph30%30.29 "Hg10 mi
3:56 PM41 °FPassing clouds.8 mph32%30.29 "Hg10 mi
2:56 PM39 °FPassing clouds.N/A36%30.31 "Hg10 mi
1:56 PM38 °FPassing clouds.9 mph39%30.32 "Hg10 mi
12:56 PM36 °FPassing clouds.8 mph38%30.32 "Hg10 mi
11:56 AM33 °FScattered clouds.3 mph49%30.32 "Hg10 mi
10:56 AM30 °FPassing clouds.5 mph56%30.31 "Hg10 mi
9:56 AM28 °FPassing clouds.7 mph58%30.30 "Hg10 mi
8:56 AM26 °FPassing clouds.9 mph60%30.28 "Hg10 mi
7:56 AM23 °FPassing clouds.9 mph68%30.25 "Hg10 mi
Weather by CustomWeather, © 2015

See weather overviewHow to use our weather pages